Terug naar catalogus

FENGYUN 1C DEB

ActiefSSO
NORAD 30157·DEBRIS·🇨🇳 China

Gelanceerd May 10, 1999 vanaf Taiyuan Satellite Launch Center

Loading…

Volgende Passages (komende 24 uur)

TLE

VersSource: Space-Track

Epoch: Sep 14, 2026, 06:03 UTC

1 30157U 99025TN  26257.25222405  .00004277  00000-0  11449-2 0  9996
2 30157  98.7204   7.3112 0035115  87.7403 302.7491 14.48428125 20520

Volg FENGYUN 1C DEB in realtime met AllMySat

Download on the App Store